Location: Le Pont-de-Coulogne
(50.9242°N, 1.8700°E)
Time: 13:21:04
(UTC+00:00)

CZ-2C R/B - Pass Details

Date: 15 May 2026
Orbit: 702 x 901 km, 98.2° (Epoch: 11 June)

Event Time Altitude Azimuth Distance (km) Brightness Sun altitude
Rises 22:59:32 0° 20° (NNE) 3,502 7.4 -19.2°
Reaches altitude 10° 23:02:09 10° 29° (NNE) 2,573 6.4 -19.3°
Maximum altitude 23:07:25 35° 94° (E) 1,411 4.2 -19.4°
Enters shadow 23:09:29 27° 133° (SE) 1,645 4.3 -19.5°
